| time (UTC) | temp F | wind direction | speed knots | gust knots | rain 1hr in | rain 24hr in | rain mn in | humidity % | barometer mb |
| 20260505071005 | 60 | 202 | 2.6 | 12.2 | 0.00 | 0.00 | 0.00 | 46 | 1011.2 |
| 20260505070005 | 60 | 181 | 2.6 | 9.6 | 0.00 | 0.00 | 0.00 | 47 | 1011.2 |
| 20260505065005 | 60 | 188 | 2.6 | 10.4 | 0.00 | 0.00 | 0.00 | 50 | 1011.1 |
| 20260505064005 | 60 | 172 | 1.7 | 9.6 | 0.00 | 0.00 | 0.00 | 49 | 1011.1 |
| 20260505063005 | 60 | 179 | 1.7 | 8.7 | 0.00 | 0.00 | 0.00 | 48 | 1011.1 |
| 20260505062004 | 59 | 178 | 2.6 | 8.7 | 0.00 | 0.00 | 0.00 | 47 | 1011.1 |
| 20260505061005 | 57 | 171 | 0.9 | 7.0 | 0.00 | 0.00 | 0.00 | 49 | 1011.1 |
| 20260505060005 | 55 | 115 | 0.9 | 4.3 | 0.00 | 0.00 | 0.00 | 55 | 1011.1 |
| 20260505055004 | 54 | 41 | 0.9 | 4.3 | 0.00 | 0.00 | 0.00 | 58 | 1010.3 |
| 20260505054005 | 54 | 99 | 0.9 | 5.2 | 0.00 | 0.00 | 0.00 | 57 | 1010.3 |
| 20260505053005 | 54 | 331 | 0.9 | 5.2 | 0.00 | 0.00 | 0.00 | 56 | 1010.3 |
| 20260505052004 | 57 | 204 | 0.9 | 5.2 | 0.00 | 0.00 | 0.00 | 47 | 1010.3 |
| 20260505051005 | 57 | 188 | 0.9 | 4.3 | 0.00 | 0.00 | 0.00 | 47 | 1010.3 |
| 20260505041004 | 56 | 142 | 0.9 | 5.2 | 0.00 | 0.00 | 0.00 | 50 | 1010.2 |
| 20260505040005 | 56 | 154 | 0.9 | 4.3 | 0.00 | 0.00 | 0.00 | 51 | 1010.2 |
| 20260505035004 | 56 | 143 | 0.9 | 4.3 | 0.00 | 0.00 | 0.00 | 51 | 1009.5 |
| 20260505034004 | 57 | 170 | 0.9 | 3.5 | 0.00 | 0.00 | 0.00 | 49 | 1009.5 |
| 20260505033005 | 57 | 143 | 0.9 | 3.5 | 0.00 | 0.00 | 0.00 | 46 | 1009.5 |
| 20260505032005 | 58 | 178 | 0.9 | 3.5 | 0.00 | 0.00 | 0.00 | 45 | 1009.5 |
| 20260505031005 | 57 | 88 | 0.9 | 4.3 | 0.00 | 0.00 | 0.00 | 47 | 1009.5 |
| 20260505030004 | 58 | 155 | 0.9 | 5.2 | 0.00 | 0.00 | 0.00 | 44 | 1009.5 |
| 20260505025004 | 59 | 162 | 0.9 | 4.3 | 0.00 | 0.00 | 0.00 | 44 | 1009.2 |
| 20260505024004 | 60 | 131 | 0.9 | 3.5 | 0.00 | 0.00 | 0.00 | 41 | 1009.2 |
| 20260505023004 | 61 | 134 | 0.9 | 5.2 | 0.00 | 0.00 | 0.00 | 42 | 1009.2 |
| 20260505022005 | 61 | 204 | 0.9 | 4.3 | 0.00 | 0.00 | 0.00 | 39 | 1009.2 |
| 20260505021004 | 63 | 139 | 0.9 | 2.6 | 0.00 | 0.00 | 0.00 | 40 | 1009.2 |
| 20260505020004 | 63 | 152 | 0.9 | 3.5 | 0.00 | 0.00 | 0.00 | 39 | 1009.2 |
| 20260505015004 | 62 | 164 | 0.9 | 2.6 | 0.00 | 0.00 | 0.00 | 41 | 1009.4 |
| 20260505014004 | 63 | 156 | 0.0 | 2.6 | 0.00 | 0.00 | 0.00 | 38 | 1009.4 |
| 20260505013005 | 64 | 147 | 0.0 | 3.5 | 0.00 | 0.00 | 0.00 | 37 | 1009.4 |
| 20260505012004 | 64 | 108 | 0.9 | 4.3 | 0.00 | 0.00 | 0.00 | 36 | 1009.4 |
| 20260505011004 | 64 | 104 | 0.0 | 2.6 | 0.00 | 0.00 | 0.00 | 39 | 1009.4 |
| 20260505010005 | 64 | 75 | 0.0 | 1.7 | 0.00 | 0.00 | 0.00 | 35 | 1009.4 |
| 20260505005005 | 65 | 275 | 0.9 | 6.1 | 0.00 | 0.00 | 0.00 | 35 | 1010.0 |
| 20260505004005 | 65 | 222 | 0.9 | 6.1 | 0.00 | 0.00 | 0.00 | 35 | 1010.0 |
| 20260505003004 | 66 | 323 | 0.9 | 4.3 | 0.00 | 0.00 | 0.00 | 35 | 1010.0 |
| 20260505002004 | 67 | 290 | 0.9 | 3.5 | 0.00 | 0.00 | 0.00 | 33 | 1010.0 |
| 20260505001004 | 66 | 283 | 0.9 | 7.8 | 0.00 | 0.00 | 0.00 | 31 | 1010.0 |
| 20260505000004 | 65 | 30 | 0.9 | 7.0 | 0.00 | 0.00 | 0.00 | 37 | 1010.0 |
| 20260504235004 | 66 | 348 | 1.7 | 8.7 | 0.00 | 0.00 | 0.00 | 34 | 1009.3 |
| 20260504234004 | 67 | 23 | 1.7 | 9.6 | 0.00 | 0.00 | 0.00 | 34 | 1009.3 |
| 20260504233004 | 71 | 348 | 2.6 | 13.9 | 0.00 | 0.00 | 0.00 | 29 | 1009.3 |
| 20260504232004 | 72 | 0 | 2.6 | 13.9 | 0.00 | 0.00 | 0.00 | 28 | 1009.3 |
| 20260504231004 | 75 | 334 | 1.7 | 8.7 | 0.00 | 0.00 | 0.00 | 22 | 1009.3 |
| 20260504230005 | 76 | 282 | 0.9 | 5.2 | 0.00 | 0.00 | 0.00 | 20 | 1009.3 |
| 20260504225005 | 76 | 284 | 0.9 | 6.1 | 0.00 | 0.00 | 0.00 | 22 | 1009.5 |
| 20260504224004 | 75 | 334 | 1.7 | 7.8 | 0.00 | 0.00 | 0.00 | 20 | 1009.5 |
| 20260504223004 | 76 | 327 | 0.9 | 6.1 | 0.00 | 0.00 | 0.00 | 20 | 1009.5 |
| 20260504222004 | 76 | 250 | 0.9 | 5.2 | 0.00 | 0.00 | 0.00 | 20 | 1009.5 |
| 20260504221004 | 74 | 227 | 1.7 | 7.8 | 0.00 | 0.00 | 0.00 | 19 | 1009.5 |
| 20260504220004 | 76 | 190 | 1.7 | 7.0 | 0.00 | 0.00 | 0.00 | 19 | 1009.5 |
| 20260504215005 | 75 | 209 | 0.9 | 7.0 | 0.00 | 0.00 | 0.00 | 18 | 1010.3 |
| 20260504214004 | 75 | 67 | 0.9 | 7.8 | 0.00 | 0.00 | 0.00 | 16 | 1010.3 |
| 20260504213004 | 77 | 348 | 0.0 | 3.5 | 0.00 | 0.00 | 0.00 | 19 | 1010.3 |
| 20260504212005 | 74 | 34 | 1.7 | 7.8 | 0.00 | 0.00 | 0.00 | 22 | 1010.3 |
| 20260504211004 | 73 | 345 | 1.7 | 7.8 | 0.00 | 0.00 | 0.00 | 22 | 1010.3 |
| 20260504210005 | 74 | 324 | 0.9 | 6.1 | 0.00 | 0.00 | 0.00 | 25 | 1010.3 |
| 20260504205004 | 73 | 277 | 0.9 | 7.0 | 0.00 | 0.00 | 0.00 | 25 | 1011.1 |
| 20260504204004 | 74 | 302 | 0.9 | 6.1 | 0.00 | 0.00 | 0.00 | 27 | 1011.1 |
| 20260504203004 | 73 | 201 | 1.7 | 7.8 | 0.00 | 0.00 | 0.00 | 24 | 1011.1 |
| 20260504202005 | 72 | 329 | 0.9 | 7.0 | 0.00 | 0.00 | 0.00 | 25 | 1011.1 |
| 20260504201004 | 73 | 23 | 0.9 | 6.1 | 0.00 | 0.00 | 0.00 | 30 | 1011.1 |
| 20260504200004 | 73 | 139 | 0.9 | 5.2 | 0.00 | 0.00 | 0.00 | 31 | 1011.1 |
| 20260504195004 | 72 | 118 | 0.9 | 4.3 | 0.00 | 0.00 | 0.00 | 29 | 1011.7 |
| 20260504194004 | 72 | 97 | 0.0 | 3.5 | 0.00 | 0.00 | 0.00 | 27 | 1011.7 |
| 20260504193004 | 72 | 49 | 0.0 | 3.5 | 0.00 | 0.00 | 0.00 | 27 | 1011.7 |
| 20260504192004 | 72 | 347 | 0.0 | 3.5 | 0.00 | 0.00 | 0.00 | 27 | 1011.7 |
| 20260504191004 | 71 | 203 | 0.9 | 5.2 | 0.00 | 0.00 | 0.00 | 26 | 1011.7 |
| 20260504190004 | 72 | 194 | 0.0 | 3.5 | 0.00 | 0.00 | 0.00 | 29 | 1011.7 |
| 20260504185004 | 70 | 98 | 0.0 | 2.6 | 0.00 | 0.00 | 0.00 | 34 | 1012.6 |
| 20260504184004 | 69 | 250 | 0.9 | 4.3 | 0.00 | 0.00 | 0.00 | 31 | 1012.6 |
| 20260504183004 | 69 | 54 | 0.9 | 4.3 | 0.00 | 0.00 | 0.00 | 35 | 1012.6 |
| 20260504182004 | 71 | 280 | 0.0 | 3.5 | 0.00 | 0.00 | 0.00 | 33 | 1012.6 |
| 20260504181004 | 69 | 15 | 0.0 | 2.6 | 0.00 | 0.00 | 0.00 | 36 | 1012.6 |
| 20260504180005 | 67 | 286 | 0.9 | 5.2 | 0.00 | 0.00 | 0.00 | 37 | 1012.6 |
| 20260504175004 | 67 | 326 | 0.9 | 4.3 | 0.00 | 0.00 | 0.00 | 38 | 1013.0 |
| 20260504174004 | 66 | 286 | 0.9 | 4.3 | 0.00 | 0.00 | 0.00 | 38 | 1013.0 |
| 20260504173004 | 65 | 310 | 0.9 | 4.3 | 0.00 | 0.00 | 0.00 | 37 | 1013.0 |
| 20260504172004 | 64 | 219 | 0.9 | 5.2 | 0.00 | 0.00 | 0.00 | 38 | 1013.0 |
| 20260504171004 | 64 | 335 | 0.9 | 4.3 | 0.00 | 0.00 | 0.00 | 40 | 1013.0 |
| 20260504151005 | 52 | 293 | 0.9 | 3.5 | 0.00 | 0.00 | 0.00 | 51 | 1013.5 |
| 20260504141004 | 49 | 217 | 0.0 | 1.7 | 0.00 | 0.00 | 0.00 | 61 | 1013.9 |
| 20260504082005 | 44 | 88 | 0.0 | 1.7 | 0.00 | 0.00 | 0.00 | 59 | 1012.9 |
| 20260504081005 | 44 | 263 | 0.0 | 1.7 | 0.00 | 0.00 | 0.00 | 65 | 1012.9 |